sat.trackr.live / text

‹ back to catalog

YAOGAN-30 06A

NORAD 44449 · 2019-045A

PAYLOAD ACTIVE UNKNOWN

§ Identity

Operator
Country
PRC
Launch date
2019-07-26
Launch site
XICLF
Launch vehicle
Mass (kg)
RCS (m²)

External: N2YO · Heavens-Above · Gunter

§ Orbital elements

Epoch: 2026-09-10T04:57:25.136352Z

Period
95.81 min
Inclination
34.9929°
Eccentricity
0.0004703
Mean motion
15.03032772 rev/d
Perigee alt
554.3 km
Apogee alt
560.8 km
Semi-major
6,935.7 km
B*
1.4321e-4
RAAN
171.7481°
Arg perigee
295.6741°
Mean anomaly
64.3482°
Rev number
38,941

§ Raw data

YAOGAN-30 06A1 44449U 19045A   26253.20654093  .00001939  00000+0  14321-3 0  99962 44449  34.9929 171.7481 0004703 295.6741  64.3482 15.03032772389412

JSON: /api/v1/satellites/44449 · /tle

For live sub-satellite position, see the globe view (requires WebGL).

§ Visibility from observer

Set your observer location to see the next 7 days of passes ≥ 10°. The values pass through the URL so the page stays shareable.

No JS? Fill the form by hand. The geolocation button needs JavaScript.